TVF43KT LFPO-LFBZ

Flight info

Callsign TVF43KT
Flight time 1h 15m
Altitude 35000
Route AGOPA DCT ARKIP DCT ARMAL DCT ARTAX DCT BEBIX DCT LMG DCT UVELI DCT OSMOB DCT VAVIX DCT MAGEC
Aircraft B738/M-SDE2E3FGHIRWXY/LB1

Departure

Time 2026-04-26 11:58
Airport Paris-Orly Airport (LFPO)

Arrival

Time 2026-04-26 13:13
Airport Biarritz Pays Basque airport (LFBZ)
Time Latitude Longitude Altitude Speed Heading
2026-04-26 11:36 48.72587 2.36249 300 ft 0 kts 348°
2026-04-26 11:51 48.72586 2.36249 299 ft 2 kts 348°
2026-04-26 11:51 48.72561 2.36257 305 ft 4 kts 348°
2026-04-26 11:52 48.72540 2.36264 303 ft 4 kts 334°
2026-04-26 11:52 48.72522 2.36287 305 ft 4 kts 284°
2026-04-26 11:52 48.72524 2.36323 306 ft 4 kts 255°
2026-04-26 11:52 48.72527 2.36341 303 ft 0 kts 255°
2026-04-26 11:55 48.72525 2.36332 299 ft 3 kts 255°
2026-04-26 11:55 48.72511 2.36256 301 ft 10 kts 248°
2026-04-26 11:55 48.72446 2.36227 299 ft 11 kts 193°
2026-04-26 11:56 48.72402 2.36113 304 ft 16 kts 253°
2026-04-26 11:56 48.72367 2.35922 302 ft 20 kts 255°
2026-04-26 11:56 48.72330 2.35721 304 ft 20 kts 255°
2026-04-26 11:56 48.72281 2.35603 303 ft 11 kts 202°
2026-04-26 11:57 48.72191 2.35615 302 ft 16 kts 167°
2026-04-26 11:57 48.72076 2.35675 303 ft 19 kts 148°
2026-04-26 11:57 48.72005 2.35814 302 ft 17 kts 121°
2026-04-26 11:57 48.71953 2.35913 302 ft 8 kts 91°
2026-04-26 11:58 48.71969 2.36010 301 ft 18 kts 75°
2026-04-26 11:58 48.72076 2.36592 306 ft 96 kts 74°
2026-04-26 11:58 48.72320 2.37905 318 ft 158 kts 73°
2026-04-26 11:58 48.72617 2.39529 1100 ft 158 kts 75°
2026-04-26 11:59 48.72914 2.41183 1968 ft 162 kts 73°
2026-04-26 11:59 48.73226 2.42898 2821 ft 172 kts 74°
2026-04-26 11:59 48.73532 2.44545 4000 ft 161 kts 75°
2026-04-26 11:59 48.73860 2.46289 4585 ft 186 kts 75°
2026-04-26 12:00 48.74104 2.48351 4869 ft 216 kts 87°
2026-04-26 12:00 48.74167 2.50774 5123 ft 243 kts 87°
2026-04-26 12:00 48.74249 2.53447 5578 ft 262 kts 87°
2026-04-26 12:00 48.74258 2.56219 6483 ft 266 kts 99°
2026-04-26 12:01 48.73518 2.58806 7243 ft 273 kts 128°
2026-04-26 12:01 48.72036 2.60615 8117 ft 279 kts 154°
2026-04-26 12:01 48.70153 2.61437 8924 ft 287 kts 170°
2026-04-26 12:01 48.68154 2.61895 9878 ft 293 kts 172°
2026-04-26 12:02 48.66122 2.62295 10790 ft 299 kts 178°
2026-04-26 12:02 48.64720 2.62117 11047 ft 316 kts 195°
2026-04-26 12:02 48.62173 2.59577 11343 ft 350 kts 231°
2026-04-26 12:02 48.60633 2.56562 11620 ft 373 kts 232°
2026-04-26 12:03 48.58987 2.53471 12248 ft 382 kts 231°
2026-04-26 12:03 48.57290 2.50354 13095 ft 385 kts 231°
2026-04-26 12:03 48.55574 2.47233 13954 ft 388 kts 231°
2026-04-26 12:03 48.53836 2.44084 14697 ft 392 kts 231°
2026-04-26 12:04 48.52090 2.40925 15507 ft 393 kts 231°
2026-04-26 12:04 48.50335 2.37754 16325 ft 394 kts 231°
2026-04-26 12:04 48.48566 2.34561 16952 ft 401 kts 231°
2026-04-26 12:04 48.46765 2.31313 17643 ft 404 kts 231°
2026-04-26 12:05 48.44985 2.28107 18362 ft 406 kts 231°
2026-04-26 12:05 48.43160 2.24825 18935 ft 411 kts 231°
2026-04-26 12:05 48.41314 2.21507 19480 ft 416 kts 231°
2026-04-26 12:05 48.39445 2.18150 20016 ft 420 kts 231°
2026-04-26 12:06 48.37560 2.14768 20576 ft 424 kts 231°
2026-04-26 12:06 48.35657 2.11359 21162 ft 426 kts 231°
2026-04-26 12:06 48.33743 2.07935 21722 ft 430 kts 231°
2026-04-26 12:06 48.31779 2.04520 22210 ft 435 kts 226°
2026-04-26 12:07 48.29291 2.01874 22661 ft 444 kts 206°
2026-04-26 12:07 48.26331 2.00482 23195 ft 450 kts 190°
2026-04-26 12:07 48.23180 2.00317 23698 ft 455 kts 180°
2026-04-26 12:07 48.20001 2.00488 24080 ft 460 kts 179°
2026-04-26 12:08 48.16785 2.00680 24435 ft 464 kts 179°
2026-04-26 12:08 48.13545 2.00828 24822 ft 467 kts 180°
2026-04-26 12:08 48.10291 2.00932 25226 ft 469 kts 180°
2026-04-26 12:08 48.07062 2.01022 25613 ft 472 kts 180°
2026-04-26 12:09 48.03766 2.01177 25975 ft 475 kts 179°
2026-04-26 12:09 48.00449 2.01377 26328 ft 478 kts 179°
2026-04-26 12:09 47.97121 2.01593 26667 ft 481 kts 179°
2026-04-26 12:09 47.93764 2.01809 27003 ft 483 kts 179°
2026-04-26 12:10 47.90391 2.02019 27335 ft 486 kts 179°
2026-04-26 12:10 47.87006 2.02222 27661 ft 488 kts 179°
2026-04-26 12:10 47.83594 2.02423 27996 ft 490 kts 179°
2026-04-26 12:10 47.80188 2.02621 28408 ft 490 kts 179°
2026-04-26 12:11 47.76784 2.02818 28900 ft 488 kts 179°
2026-04-26 12:11 47.73397 2.03015 29379 ft 488 kts 179°
2026-04-26 12:11 47.70002 2.03212 29812 ft 488 kts 179°
2026-04-26 12:11 47.66609 2.03408 30256 ft 487 kts 179°
2026-04-26 12:12 47.63226 2.03604 30661 ft 487 kts 179°
2026-04-26 12:12 47.59854 2.03800 31075 ft 485 kts 179°
2026-04-26 12:12 47.56525 2.03995 31473 ft 484 kts 179°
2026-04-26 12:12 47.54249 2.04128 31723 ft 484 kts 179°
2026-04-26 12:13 47.49787 2.04388 32203 ft 484 kts 179°
2026-04-26 12:13 47.46427 2.04584 32612 ft 483 kts 180°
2026-04-26 12:13 47.43073 2.04780 33022 ft 481 kts 180°
2026-04-26 12:13 47.39731 2.04974 33422 ft 481 kts 180°
2026-04-26 12:14 47.36387 2.05167 33778 ft 480 kts 180°
2026-04-26 12:14 47.33053 2.05123 34116 ft 478 kts 187°
2026-04-26 12:14 47.29764 2.04409 34443 ft 476 kts 192°
2026-04-26 12:14 47.26510 2.03545 34801 ft 474 kts 193°
2026-04-26 12:15 47.23273 2.02664 35132 ft 473 kts 193°
2026-04-26 12:15 47.16748 2.00920 35199 ft 479 kts 192°
2026-04-26 12:16 47.10241 1.99251 35186 ft 475 kts 192°
2026-04-26 12:16 47.03748 1.97619 35192 ft 472 kts 192°
2026-04-26 12:17 46.97270 1.95996 35192 ft 472 kts 192°
2026-04-26 12:17 46.90803 1.94377 35192 ft 471 kts 192°
2026-04-26 12:18 46.84333 1.92759 35198 ft 472 kts 192°
2026-04-26 12:18 46.77852 1.91142 35197 ft 473 kts 192°
2026-04-26 12:19 46.71360 1.89527 35197 ft 474 kts 192°
2026-04-26 12:19 46.64891 1.87921 35196 ft 475 kts 192°
2026-04-26 12:20 46.58370 1.86307 35199 ft 475 kts 192°
2026-04-26 12:20 46.51847 1.84696 35196 ft 476 kts 192°
2026-04-26 12:21 46.45303 1.83083 35198 ft 477 kts 192°
2026-04-26 12:21 46.38756 1.81474 35194 ft 477 kts 192°
2026-04-26 12:22 46.32202 1.79866 35196 ft 478 kts 191°
2026-04-26 12:22 46.25877 1.77181 35196 ft 473 kts 208°
2026-04-26 12:23 46.20484 1.71929 35205 ft 466 kts 224°
2026-04-26 12:23 46.16443 1.66775 35194 ft 466 kts 224°
2026-04-26 12:24 46.11560 1.60595 35188 ft 467 kts 224°
2026-04-26 12:24 46.05836 1.53489 35190 ft 467 kts 224°
2026-04-26 12:25 45.99231 1.45336 35197 ft 467 kts 224°
2026-04-26 12:25 45.94698 1.38814 35208 ft 461 kts 236°
2026-04-26 12:26 45.91553 1.30882 35218 ft 456 kts 247°
2026-04-26 12:26 45.88747 1.22703 35206 ft 457 kts 246°
2026-04-26 12:27 45.85877 1.14566 35204 ft 457 kts 246°
2026-04-26 12:27 45.82963 1.06451 35210 ft 458 kts 244°
2026-04-26 12:28 45.79005 0.99265 35206 ft 465 kts 224°
2026-04-26 12:28 45.74020 0.93318 35185 ft 467 kts 222°
2026-04-26 12:29 45.68982 0.87444 35190 ft 467 kts 222°
2026-04-26 12:30 45.61511 0.78611 35187 ft 467 kts 222°
2026-04-26 12:30 45.56525 0.72683 35181 ft 466 kts 222°
2026-04-26 12:31 45.49044 0.63811 35188 ft 466 kts 222°
2026-04-26 12:31 45.44051 0.57911 35186 ft 466 kts 222°
2026-04-26 12:32 45.39058 0.52026 35182 ft 466 kts 222°
2026-04-26 12:33 45.31562 0.43217 35191 ft 465 kts 222°
2026-04-26 12:33 45.26597 0.37399 35178 ft 465 kts 222°
2026-04-26 12:34 45.21594 0.31551 35189 ft 465 kts 221°
2026-04-26 12:34 45.16597 0.25722 35182 ft 465 kts 221°
2026-04-26 12:35 45.11600 0.19907 35197 ft 465 kts 221°
2026-04-26 12:35 45.06602 0.14101 35193 ft 465 kts 221°
2026-04-26 12:36 45.01596 0.08305 35183 ft 465 kts 221°
2026-04-26 12:36 44.99074 0.05390 34676 ft 470 kts 221°
2026-04-26 12:36 44.96581 0.02513 34062 ft 467 kts 221°
2026-04-26 12:36 44.94071 -0.00381 33344 ft 465 kts 221°
2026-04-26 12:37 44.91572 -0.03259 32658 ft 462 kts 221°
2026-04-26 12:37 44.89084 -0.06123 31949 ft 460 kts 220°
2026-04-26 12:37 44.86607 -0.08972 31228 ft 459 kts 220°
2026-04-26 12:37 44.84136 -0.11810 30511 ft 458 kts 220°
2026-04-26 12:38 44.81665 -0.14646 29681 ft 457 kts 220°
2026-04-26 12:38 44.79201 -0.17469 28843 ft 456 kts 220°
2026-04-26 12:38 44.76745 -0.20280 28015 ft 454 kts 220°
2026-04-26 12:38 44.74297 -0.23080 27192 ft 451 kts 220°
2026-04-26 12:39 44.71903 -0.25814 26628 ft 449 kts 220°
2026-04-26 12:39 44.69446 -0.28620 26025 ft 463 kts 220°
2026-04-26 12:39 44.66921 -0.31499 25393 ft 467 kts 220°
2026-04-26 12:39 44.64408 -0.34324 24754 ft 459 kts 218°
2026-04-26 12:40 44.61840 -0.36934 24147 ft 451 kts 216°
2026-04-26 12:40 44.59268 -0.39401 23480 ft 445 kts 214°
2026-04-26 12:40 44.56715 -0.41804 22798 ft 437 kts 214°
2026-04-26 12:40 44.54211 -0.44162 22187 ft 430 kts 214°
2026-04-26 12:41 44.51754 -0.46490 21579 ft 423 kts 214°
2026-04-26 12:41 44.49334 -0.48798 20998 ft 419 kts 215°
2026-04-26 12:41 44.46943 -0.51089 20418 ft 413 kts 215°
2026-04-26 12:41 44.44577 -0.53359 19856 ft 416 kts 215°
2026-04-26 12:42 44.42151 -0.55686 19271 ft 427 kts 214°
2026-04-26 12:42 44.39729 -0.58006 18657 ft 425 kts 214°
2026-04-26 12:42 44.37308 -0.60324 17983 ft 419 kts 214°
2026-04-26 12:42 44.34926 -0.62600 17364 ft 411 kts 214°
2026-04-26 12:43 44.32585 -0.64836 16766 ft 404 kts 214°
2026-04-26 12:43 44.30281 -0.67034 16193 ft 397 kts 214°
2026-04-26 12:43 44.28015 -0.69192 15634 ft 391 kts 215°
2026-04-26 12:43 44.25783 -0.71321 15075 ft 386 kts 215°
2026-04-26 12:44 44.23574 -0.73431 14538 ft 384 kts 215°
2026-04-26 12:44 44.21372 -0.75534 13973 ft 383 kts 215°
2026-04-26 12:44 44.19168 -0.77639 13347 ft 386 kts 215°
2026-04-26 12:44 44.16948 -0.79758 12769 ft 387 kts 215°
2026-04-26 12:45 44.14738 -0.81865 12200 ft 382 kts 215°
2026-04-26 12:45 44.12567 -0.83932 11650 ft 375 kts 215°
2026-04-26 12:45 44.10434 -0.85961 11215 ft 365 kts 215°
2026-04-26 12:45 44.08381 -0.87911 11078 ft 348 kts 215°
2026-04-26 12:46 44.06445 -0.89749 10924 ft 335 kts 215°
2026-04-26 12:46 44.04559 -0.91538 10794 ft 322 kts 215°
2026-04-26 12:46 44.02744 -0.93260 10654 ft 310 kts 215°
2026-04-26 12:46 44.00991 -0.94919 10526 ft 299 kts 215°
2026-04-26 12:47 43.99302 -0.96519 10405 ft 289 kts 215°
2026-04-26 12:47 43.97668 -0.98065 10293 ft 280 kts 215°
2026-04-26 12:47 43.96081 -0.99565 10155 ft 273 kts 215°
2026-04-26 12:47 43.94511 -1.01049 9859 ft 272 kts 215°
2026-04-26 12:48 43.92954 -1.02520 9576 ft 271 kts 215°
2026-04-26 12:48 43.91401 -1.03987 9292 ft 269 kts 215°
2026-04-26 12:48 43.89859 -1.05442 9009 ft 267 kts 215°
2026-04-26 12:48 43.88328 -1.06885 8737 ft 265 kts 215°
2026-04-26 12:49 43.86807 -1.08317 8461 ft 263 kts 214°
2026-04-26 12:49 43.85297 -1.09739 8186 ft 261 kts 214°
2026-04-26 12:49 43.83787 -1.11160 7921 ft 264 kts 214°
2026-04-26 12:49 43.82245 -1.12610 7653 ft 271 kts 214°
2026-04-26 12:50 43.80666 -1.14095 7369 ft 275 kts 214°
2026-04-26 12:50 43.79089 -1.15574 7125 ft 273 kts 215°
2026-04-26 12:50 43.77532 -1.17034 6886 ft 274 kts 215°
2026-04-26 12:50 43.75935 -1.18530 6645 ft 274 kts 213°
2026-04-26 12:51 43.74198 -1.19554 6078 ft 282 kts 191°
2026-04-26 12:51 43.72266 -1.20006 5694 ft 282 kts 189°
2026-04-26 12:51 43.70340 -1.20448 5379 ft 279 kts 189°
2026-04-26 12:51 43.68413 -1.20902 4914 ft 282 kts 189°
2026-04-26 12:52 43.66485 -1.21365 4562 ft 280 kts 189°
2026-04-26 12:52 43.64586 -1.21830 4372 ft 271 kts 189°
2026-04-26 12:52 43.62758 -1.22283 4257 ft 263 kts 189°
2026-04-26 12:52 43.60973 -1.22727 4001 ft 260 kts 189°
2026-04-26 12:53 43.59203 -1.23169 3763 ft 257 kts 189°
2026-04-26 12:53 43.57453 -1.23420 3557 ft 251 kts 174°
2026-04-26 12:53 43.55751 -1.23100 3399 ft 244 kts 171°
2026-04-26 12:53 43.54086 -1.22768 3214 ft 239 kts 171°
2026-04-26 12:54 43.52459 -1.22449 3065 ft 231 kts 171°
2026-04-26 12:54 43.50897 -1.22450 2856 ft 222 kts 195°
2026-04-26 12:54 43.49630 -1.23538 2670 ft 215 kts 229°
2026-04-26 12:54 43.48868 -1.25288 2559 ft 215 kts 241°
2026-04-26 12:55 43.48152 -1.27097 2519 ft 215 kts 241°
2026-04-26 12:55 43.47441 -1.28879 2491 ft 208 kts 242°
2026-04-26 12:55 43.47088 -1.30722 2484 ft 195 kts 274°
2026-04-26 12:55 43.47175 -1.32580 2494 ft 194 kts 266°
2026-04-26 12:56 43.47047 -1.34401 2485 ft 188 kts 268°
2026-04-26 12:56 43.47041 -1.36202 2351 ft 190 kts 270°
2026-04-26 12:56 43.47027 -1.37988 2121 ft 182 kts 269°
2026-04-26 12:56 43.47004 -1.39669 1933 ft 168 kts 270°
2026-04-26 12:57 43.46981 -1.41278 1683 ft 167 kts 269°
2026-04-26 12:57 43.46960 -1.42864 1453 ft 164 kts 269°
2026-04-26 12:57 43.46939 -1.44404 1236 ft 160 kts 269°
2026-04-26 12:58 43.46899 -1.47452 780 ft 156 kts 270°
2026-04-26 12:58 43.46879 -1.48925 579 ft 152 kts 269°
2026-04-26 12:58 43.46862 -1.50365 379 ft 149 kts 272°
2026-04-26 12:58 43.46844 -1.51747 239 ft 136 kts 271°
2026-04-26 12:59 43.46829 -1.53084 644 ft 153 kts 271°
2026-04-26 12:59 43.46817 -1.54712 1620 ft 182 kts 270°
2026-04-26 12:59 43.46795 -1.56558 2534 ft 209 kts 268°
2026-04-26 12:59 43.46974 -1.58631 2888 ft 224 kts 293°
2026-04-26 13:00 43.47541 -1.59792 3042 ft 222 kts 317°
2026-04-26 13:00 43.49377 -1.61073 3357 ft 227 kts 353°
2026-04-26 13:00 43.50943 -1.61180 3643 ft 226 kts
2026-04-26 13:00 43.52519 -1.61189 3901 ft 226 kts
2026-04-26 13:01 43.54074 -1.61187 3994 ft 224 kts
2026-04-26 13:01 43.55638 -1.61194 4003 ft 226 kts 357°
2026-04-26 13:01 43.57137 -1.61846 4007 ft 229 kts 329°
2026-04-26 13:01 43.58379 -1.63227 3988 ft 231 kts 311°
2026-04-26 13:02 43.59178 -1.65128 4010 ft 229 kts 298°
2026-04-26 13:02 43.60261 -1.66677 3991 ft 229 kts 336°
2026-04-26 13:02 43.61827 -1.67023 3994 ft 231 kts
2026-04-26 13:02 43.63287 -1.66167 3996 ft 231 kts 41°
2026-04-26 13:03 43.64189 -1.64377 3989 ft 229 kts 74°
2026-04-26 13:03 43.64328 -1.62207 3994 ft 228 kts 93°
2026-04-26 13:03 43.64178 -1.60049 3993 ft 233 kts 97°
2026-04-26 13:03 43.63977 -1.57795 4001 ft 237 kts 97°
2026-04-26 13:04 43.63772 -1.55537 3988 ft 237 kts 97°
2026-04-26 13:04 43.63573 -1.53288 3984 ft 236 kts 97°
2026-04-26 13:04 43.63376 -1.51031 3971 ft 237 kts 96°
2026-04-26 13:04 43.63183 -1.48765 3979 ft 237 kts 96°
2026-04-26 13:05 43.62992 -1.46499 3980 ft 239 kts 96°
2026-04-26 13:05 43.62800 -1.44215 3985 ft 240 kts 96°
2026-04-26 13:05 43.62608 -1.41920 3982 ft 240 kts 96°
2026-04-26 13:05 43.62417 -1.39627 3971 ft 241 kts 96°
2026-04-26 13:06 43.62226 -1.37330 3972 ft 240 kts 96°
2026-04-26 13:06 43.62035 -1.35037 3970 ft 240 kts 96°
2026-04-26 13:06 43.61844 -1.32748 3973 ft 240 kts 96°
2026-04-26 13:06 43.61654 -1.30477 3968 ft 234 kts 96°
2026-04-26 13:07 43.61470 -1.28292 3960 ft 224 kts 96°
2026-04-26 13:07 43.61276 -1.26194 3905 ft 220 kts 102°
2026-04-26 13:07 43.60534 -1.24434 3845 ft 218 kts 139°
2026-04-26 13:07 43.59162 -1.23567 3769 ft 223 kts 172°
2026-04-26 13:08 43.57606 -1.23676 3691 ft 226 kts 189°
2026-04-26 13:08 43.56052 -1.24056 3502 ft 228 kts 189°
2026-04-26 13:08 43.54484 -1.24444 3253 ft 229 kts 189°
2026-04-26 13:08 43.52926 -1.24823 3034 ft 224 kts 188°
2026-04-26 13:09 43.51426 -1.25180 2832 ft 215 kts 189°
2026-04-26 13:09 43.49981 -1.25526 2618 ft 208 kts 191°
2026-04-26 13:09 43.48711 -1.26376 2512 ft 203 kts 220°
2026-04-26 13:09 43.47775 -1.27802 2490 ft 201 kts 236°
2026-04-26 13:10 43.47228 -1.29551 2478 ft 201 kts 263°
2026-04-26 13:10 43.47162 -1.31453 2495 ft 198 kts 267°
2026-04-26 13:10 43.47099 -1.33325 2503 ft 195 kts 268°
2026-04-26 13:10 43.47066 -1.35156 2461 ft 189 kts 269°
2026-04-26 13:11 43.47041 -1.36916 2277 ft 178 kts 270°
2026-04-26 13:11 43.47018 -1.38576 2073 ft 168 kts 269°
2026-04-26 13:11 43.46996 -1.40163 1828 ft 163 kts 270°
2026-04-26 13:11 43.46976 -1.41707 1618 ft 160 kts 269°
2026-04-26 13:12 43.46954 -1.43239 1429 ft 159 kts 269°
2026-04-26 13:12 43.46936 -1.44742 1267 ft 158 kts 270°
2026-04-26 13:12 43.46915 -1.46242 991 ft 158 kts 270°
2026-04-26 13:12 43.46895 -1.47732 739 ft 153 kts 270°
2026-04-26 13:13 43.46872 -1.49198 553 ft 151 kts 271°
2026-04-26 13:13 43.46858 -1.50606 338 ft 144 kts 272°
2026-04-26 13:13 43.46841 -1.51918 238 ft 110 kts 269°
2026-04-26 13:13 43.46835 -1.52474 241 ft 33 kts 269°
2026-04-26 13:14 43.46832 -1.52754 243 ft 29 kts 269°
2026-04-26 13:14 43.46831 -1.52996 246 ft 23 kts 269°
2026-04-26 13:14 43.46870 -1.53147 244 ft 16 kts 337°
2026-04-26 13:14 43.46944 -1.53193 244 ft 7 kts 337°
2026-04-26 13:15 43.46979 -1.53209 244 ft 5 kts 358°
2026-04-26 13:15 43.47029 -1.53177 244 ft 9 kts 45°
2026-04-26 13:15 43.47045 -1.53148 244 ft 4 kts 59°
2026-04-26 13:15 43.47052 -1.53109 244 ft 4 kts 85°
2026-04-26 13:16 43.47053 -1.53056 244 ft 8 kts 90°
2026-04-26 13:16 43.47053 -1.52970 244 ft 6 kts 87°
2026-04-26 13:16 43.47090 -1.52948 244 ft 6 kts
2026-04-26 13:16 43.47130 -1.52947 244 ft 2 kts
2026-04-26 13:17 43.47132 -1.52947 244 ft 0 kts